Wind_Speed
44 42 44 48 53 56 60 64 69 72 74 79 83 85 83 78 70 59 46 43 41 39 30 29 25 22 19 17 15 11 7 11 14 17 15 3 3 6 13 12 10 4 15 30 52 49 36 24 26 25 20 26 16 16
41 42 45 50 54 57 60 65 69 72 75 80 82 81 78 73 62 52 45 44 42 34 24 14 10 10 6 11 5 6 12 12 14 15 9 5 5 6 9 5 4 9 13 31 48 48 37 32 28 29 28 25 19 17
40 43 47 51 54 58 61 65 69 72 75 80 80 77 75 66 56 44 41 40 30 13 5 5 9 7 7 7 5 2 8 5 8 9 7 3 3 0 7 11 11 6 14 30 47 45 40 39 32 20 32 28 23 20
41 45 49 52 55 58 62 65 69 72 75 78 77 74 71 59 48 35 32 27 18 14 12 11 11 10 8 5 6 5 8 9 6 6 5 5 6 6 9 15 19 14 14 22 34 46 45 41 27 20 30 27 24 21
42 47 50 51 54 58 60 66 69 71 76 76 73 70 63 55 37 25 22 22 21 17 13 12 10 7 8 9 7 8 9 10 8 7 7 8 7 6 7 12 16 23 16 22 30 47 48 39 29 14 11 19 27 25
43 48 50 52 55 57 62 67 68 71 75 71 68 64 57 49 30 18 17 16 17 14 10 10 8 10 10 14 17 14 10 8 7 8 6 7 8 8 8 9 13 17 24 21 32 45 46 41 31 18 21 21 24 27
45 47 49 51 54 59 63 66 67 72 72 68 66 59 52 41 24 14 13 12 13 9 6 8 10 11 13 15 18 18 10 7 8 10 10 8 9 12 11 10 15 18 17 32 36 39 44 42 30 24 20 21 21 22
45 48 49 52 55 61 63 65 68 71 68 65 61 53 46 33 19 12 10 8 9 5 3 6 10 12 14 17 17 15 11 8 7 7 8 9 8 7 4 6 13 14 29 41 44 44 48 50 29 20 20 19 19 21
46 48 50 54 57 62 63 66 69 68 65 65 57 50 43 28 17 9 7 5 7 2 2 7 10 13 14 16 19 19 12 10 8 8 10 8 7 10 10 11 17 27 38 46 47 45 45 43 26 23 22 20 20 20
46 48 51 55 59 63 64 67 70 69 64 59 51 45 37 24 15 9 7 6 6 4 1 6 9 12 14 15 16 15 11 12 13 12 13 8 16 16 17 20 26 33 44 47 42 40 37 37 25 26 21 19 22 20
45 48 53 56 61 62 64 69 70 65 60 54 45 40 34 18 12 7 6 6 5 5 1 3 7 11 13 16 16 13 11 13 11 13 10 19 23 25 26 22 24 30 42 44 42 41 37 32 31 24 19 16 15 16
46 51 54 58 61 61 65 70 67 61 56 47 42 38 28 13 11 9 7 6 5 5 2 1 5 9 10 15 15 12 12 11 9 7 12 23 24 23 27 28 25 26 28 30 38 39 34 33 30 22 21 20 20 18
50 53 56 59 60 63 67 68 63 57 49 44 38 34 22 11 11 9 7 7 5 5 5 1 3 7 11 14 11 10 10 8 8 7 12 23 23 20 26 29 27 28 28 26 33 37 29 21 20 20 18 21 18 14
50 53 58 60 61 65 66 62 55 50 44 40 34 30 18 11 8 7 7 6 6 6 6 2 2 6 10 12 8 7 8 9 7 8 16 28 28 24 21 27 30 29 30 33 36 32 34 26 20 17 15 16 14 13
52 56 58 59 62 63 60 53 51 47 42 37 32 29 17 11 9 7 6 5 7 7 8 5 4 4 7 8 9 8 10 8 6 11 16 27 29 29 26 25 28 29 30 33 34 28 26 24 24 20 16 15 14 14
54 56 58 59 60 58 53 52 49 45 39 32 28 29 18 10 9 6 6 6 8 9 10 7 5 5 5 5 6 6 8 8 9 16 19 25 26 26 27 28 27 25 26 27 27 24 21 19 18 17 15 15 15 14
54 56 58 57 56 52 51 48 45 41 37 30 27 28 12 7 7 7 6 7 7 10 12 9 6 6 4 3 3 6 10 14 14 16 19 22 26 24 24 24 23 21 19 18 18 17 16 15 15 16 14 13 12 12
53 55 55 54 51 50 48 44 40 37 32 27 25 21 7 7 6 6 6 6 8 12 12 11 9 8 7 3 3 7 12 14 14 19 21 21 23 24 23 22 22 21 20 19 18 17 16 17 17 16 15 15 13 12
53 53 51 49 48 47 43 40 37 32 27 23 23 14 7 7 6 6 7 7 10 13 12 13 12 11 9 7 6 10 14 16 19 22 24 21 19 18 17 17 15 15 15 16 16 16 16 16 15 14 13 12 13 13
51 49 47 47 47 43 40 37 33 29 22 20 20 13 5 7 6 5 8 7 10 14 13 14 14 14 11 10 10 13 16 18 20 21 20 17 14 13 12 13 14 15 15 14 13 12 10 9 9 8 8 8 8 9
48 45 45 46 43 40 36 32 28 24 18 16 16 9 7 3 6 5 9 9 11 14 14 14 15 15 13 11 13 17 18 20 20 20 18 15 11 10 11 13 13 13 11 9 8 8 8 8 8 9 10 11 13 15
43 43 44 42 39 35 31 27 23 20 16 15 13 6 3 7 7 1 9 12 12 13 14 14 16 16 16 15 17 20 20 20 18 18 16 15 13 12 11 13 13 11 10 10 11 11 11 12 12 13 14 16 18 20
43 43 40 38 35 31 26 23 20 16 13 11 12 10 5 6 8 3 11 12 14 15 16 16 17 19 21 22 22 22 22 21 19 17 16 14 13 12 12 12 11 12 13 13 13 14 15 16 17 18 20 22 25 28
42 38 37 34 31 26 24 20 16 12 8 8 8 7 6 3 11 14 15 13 12 13 14 16 19 21 24 24 23 22 21 19 18 16 15 14 15 15 14 12 11 11 11 12 14 16 17 19 22 24 26 29 33 36
37 36 33 31 28 23 20 17 13 10 8 7 6 5 5 6 9 9 7 9 10 12 14 15 16 17 18 18 17 17 17 17 16 15 16 17 15 14 11 9 7 9 12 15 18 20 22 24 27 29 33 36 36 35
35 34 32 30 26 22 18 15 12 9 8 7 6 6 12 13 11 9 8 9 10 11 12 13 14 15 15 15 15 14 14 14 15 16 16 15 13 11 8 7 10 14 16 18 20 23 25 28 30 32 32 29 27 26
35 35 33 29 25 21 18 15 12 10 8 8 7 7 10 17 18 14 12 12 12 12 11 12 11 12 12 13 14 16 18 18 17 15 14 13 11 8 8 11 14 16 18 20 23 25 27 29 29 26 24 22 22 23
37 36 32 28 23 19 16 14 11 9 8 8 8 7 9 14 19 21 19 17 16 15 13 13 13 13 15 17 19 19 18 16 14 13 12 11 10 10 13 15 17 19 22 24 25 25 23 20 19 19 20 21 21 21
38 36 33 26 21 16 13 9 8 7 8 8 8 9 8 10 17 22 22 21 20 19 17 17 16 16 17 18 17 16 15 14 13 12 11 11 13 15 16 18 20 21 21 20 19 19 19 18 18 19 20 19 19 19
37 34 29 22 14 10 7 7 6 7 8 8 9 9 8 7 9 20 24 22 21 21 20 20 19 18 18 18 17 17 16 16 15 15 15 16 17 17 18 20 21 20 18 16 15 15 15 16 17 17 17 16 17 18
33 29 22 14 8 7 5 7 6 7 7 9 8 8 8 6 5 12 21 23 21 20 20 19 19 19 19 18 18 18 18 18 18 18 18 19 19 20 21 21 19 17 16 16 16 17 18 18 17 17 16 15 16 17
27 23 19 14 12 9 6 6 9 9 8 6 7 7 7 6 5 7 14 19 20 18 18 17 18 18 19 20 20 20 20 20 20 21 21 22 22 23 22 20 19 18 18 18 19 20 21 20 20 18 17 16 15 14
23 19 17 15 13 11 9 8 7 8 7 6 7 7 6 6 8 9 10 14 18 19 19 19 19 19 20 20 21 22 22 23 23 23 23 21 20 18 17 17 18 18 20 21 23 23 22 22 21 20 18 16 15 14
Wind_Direction
310 308 313 317 319 320 326 330 333 333 332 334 335 336 336 335 335 335 337 326 322 316 322 311 305 300 317 334 351 352 28 10 10 4 360 67 81 100 134 105 111 144 183 201 208 213 212 181 168 174 172 180 190 199
306 310 315 317 319 322 328 332 334 334 334 335 336 337 337 337 337 336 335 328 321 315 313 300 286 315 13 9 25 21 11 23 10 20 32 107 131 121 156 155 117 159 175 186 201 205 201 171 168 159 160 170 196 189
307 313 315 318 321 327 331 333 334 334 334 336 338 338 339 340 340 339 339 335 334 339 5 52 47 64 34 35 26 35 351 342 343 0 13 316 287 197 194 236 235 240 205 190 198 201 194 179 186 159 166 176 172 175
310 313 315 320 323 329 333 334 334 335 334 338 338 339 340 341 342 349 357 9 35 68 48 54 68 55 50 47 3 311 295 303 311 302 311 295 276 268 248 232 231 230 208 190 191 198 190 197 196 180 173 179 192 174
311 312 318 322 327 331 333 335 334 334 336 339 338 340 341 342 345 357 8 18 21 25 56 66 58 50 31 18 8 339 309 306 323 312 296 299 298 280 241 220 222 218 212 191 187 196 193 194 187 180 176 183 192 190
311 315 319 324 329 331 334 335 334 335 337 338 338 340 340 343 345 350 356 11 13 22 46 57 42 22 19 9 355 342 323 315 321 324 309 307 306 288 251 241 218 210 204 176 175 192 190 193 196 196 191 189 195 196
312 318 321 326 330 333 335 333 334 335 337 338 339 339 339 343 341 343 350 356 1 9 47 36 22 17 13 11 3 356 350 319 312 314 307 294 273 275 277 243 219 208 180 162 167 185 189 197 193 156 160 183 187 192
317 320 324 329 331 333 334 334 334 336 336 337 338 337 340 341 335 329 334 341 352 356 28 21 7 12 15 15 4 8 4 352 331 321 299 291 299 291 290 197 193 166 162 158 156 174 187 197 187 156 142 179 185 176
318 321 326 329 331 332 332 333 333 336 335 336 337 337 339 336 328 314 312 311 336 300 2 11 15 14 9 9 11 12 18 18 11 359 4 13 31 39 71 120 152 156 160 154 148 158 175 193 168 148 170 159 165 169
320 324 328 330 331 331 332 332 335 335 335 335 336 336 339 332 325 309 292 291 309 257 342 13 13 13 11 15 16 23 39 40 32 46 43 62 79 82 102 122 140 159 153 146 140 149 168 186 178 148 163 155 145 149
323 327 330 331 330 331 332 334 333 334 334 335 335 337 337 329 327 309 280 275 284 230 204 11 19 19 24 27 27 39 53 57 50 61 82 94 92 96 107 121 141 155 143 142 139 138 146 149 141 145 150 148 152 148
326 328 331 330 329 331 333 332 334 333 334 335 336 339 335 328 330 312 275 263 262 223 205 11 22 25 22 21 13 29 59 63 71 85 116 116 107 98 116 119 125 138 143 139 136 135 135 141 136 142 146 148 150 153
328 329 329 327 330 332 332 333 334 334 334 337 337 336 328 312 321 307 270 245 241 218 201 141 49 30 22 13 21 56 77 78 87 119 137 119 123 122 111 122 137 150 158 166 149 147 162 149 148 144 142 145 145 152
327 328 326 329 332 332 333 333 334 334 335 334 333 337 321 303 308 302 274 236 227 211 193 178 95 51 30 22 58 96 109 101 102 130 131 123 132 135 128 121 121 134 142 151 141 154 150 152 158 156 166 169 163 173
325 325 327 331 332 333 334 334 334 331 332 333 335 335 317 283 299 289 268 221 212 202 185 164 150 87 39 41 98 120 117 120 112 132 128 117 122 130 133 132 130 133 139 143 156 153 145 153 178 185 183 194 197 197
324 327 329 332 333 334 333 334 331 330 334 335 332 331 322 259 286 285 257 232 209 192 186 169 144 124 66 55 100 104 127 127 132 139 132 121 120 125 131 138 142 145 145 147 153 155 161 167 177 188 194 194 199 207
326 329 331 333 333 334 334 332 329 332 334 336 333 331 318 245 281 286 239 217 205 186 181 178 165 147 121 77 104 113 123 126 149 148 134 128 123 125 127 131 133 137 142 151 157 160 171 181 193 190 194 200 198 197
328 329 331 332 333 334 333 330 329 332 334 332 333 335 293 239 270 286 223 208 202 182 178 179 171 155 154 149 137 139 134 137 150 152 140 136 127 126 126 127 131 136 140 143 148 152 155 160 165 165 171 179 181 186
328 330 331 332 333 332 331 329 331 332 332 331 336 330 293 239 256 278 220 214 195 178 177 173 170 164 163 166 163 164 152 154 156 148 137 132 125 122 125 128 133 140 147 151 155 160 164 168 170 174 176 184 198 207
329 330 330 331 332 330 328 328 331 331 332 331 335 339 300 240 253 263 207 207 200 185 177 170 169 170 167 167 166 170 161 165 164 151 138 132 132 137 148 154 159 161 160 157 156 156 156 164 177 188 202 221 242 256
328 328 330 330 329 327 327 329 329 329 328 330 338 342 356 238 244 239 204 207 203 189 179 174 171 174 173 171 170 169 169 169 163 158 148 143 150 164 170 170 165 163 161 161 170 189 205 221 241 256 267 273 277 282
325 328 329 328 327 325 325 326 326 323 320 324 332 328 304 333 328 246 206 205 200 191 180 178 172 173 173 171 175 173 174 172 167 164 164 165 168 171 179 181 177 175 181 202 221 240 254 262 275 286 292 294 296 295
327 327 326 325 326 325 323 323 322 316 310 320 331 345 321 310 304 266 201 202 194 189 178 176 174 171 168 171 175 176 176 177 178 178 178 177 175 179 184 183 188 203 220 238 254 269 282 292 295 298 300 301 301 302
327 326 325 326 326 325 323 320 316 315 302 314 326 322 336 56 108 99 101 109 126 140 151 160 164 169 173 174 175 179 180 181 182 182 180 180 184 183 188 199 215 233 254 269 280 289 297 303 306 307 309 310 312 312
327 326 326 326 326 323 319 315 311 306 296 298 303 268 219 175 132 123 107 115 125 139 150 157 164 170 173 175 175 179 180 181 180 182 185 185 183 186 194 211 241 269 284 297 302 306 307 309 312 316 319 319 316 312
329 328 329 327 322 316 310 307 303 296 297 289 283 258 214 201 184 176 175 168 165 162 163 166 169 174 178 180 182 181 185 188 188 185 184 180 185 200 218 255 280 296 299 304 307 311 315 318 322 322 318 313 307 304
331 330 329 325 318 311 303 297 286 286 291 287 277 268 229 214 209 203 196 192 189 190 189 189 191 192 194 195 195 195 189 188 187 187 190 198 211 231 263 288 300 308 312 312 313 318 321 322 320 315 308 303 301 300
332 330 326 321 312 305 298 288 268 276 285 280 273 276 246 224 213 211 210 207 204 201 201 202 204 205 206 203 198 194 193 194 197 201 211 225 243 267 287 299 308 316 319 321 323 324 321 312 300 296 296 295 296 296
333 330 326 320 309 298 293 265 254 265 279 280 276 282 254 233 218 212 210 210 211 209 208 205 204 206 206 205 204 210 215 220 225 234 242 253 266 279 293 302 307 312 318 321 314 307 307 305 299 298 299 297 297 297
337 334 329 321 308 298 272 235 252 279 281 271 282 261 239 240 232 214 209 209 209 210 210 210 211 210 212 214 218 224 229 236 243 245 254 264 273 282 290 295 299 300 302 296 287 285 290 297 302 307 305 300 299 301
344 346 345 343 332 313 261 233 261 301 289 294 265 216 220 235 243 214 207 206 208 209 212 215 217 218 220 223 226 232 236 242 248 253 259 266 273 279 285 287 280 271 268 270 274 280 285 290 299 309 314 311 303 302
349 354 358 358 354 344 318 279 277 289 300 284 208 203 211 216 219 204 202 205 208 212 215 218 221 223 224 229 236 240 243 247 253 259 265 269 274 277 275 265 256 257 263 268 274 279 284 290 295 300 306 308 310 305
347 348 351 351 350 348 339 321 301 284 283 220 203 208 219 226 220 214 208 210 214 218 223 227 231 234 238 241 245 248 252 256 259 260 262 262 260 259 257 257 259 264 269 273 278 281 284 286 288 289 293 297 301 307
Height
5656 5651 5646 5639 5633 5624 5612 5601 5590 5577 5563 5547 5531 5513 5493 5477 5460 5444 5435 5425 5418 5411 5410 5404 5402 5401 5401 5400 5398 5396 5394 5393 5390 5387 5385 5384 5385 5385 5387 5387 5387 5387 5390 5400 5411 5419 5431 5436 5444 5449 5453 5458 5463 5467
5647 5642 5637 5631 5624 5614 5603 5591 5580 5567 5553 5537 5521 5504 5485 5469 5452 5438 5429 5419 5410 5403 5401 5398 5397 5399 5400 5398 5397 5396 5395 5393 5391 5388 5387 5387 5386 5387 5388 5387 5386 5389 5389 5392 5405 5417 5426 5436 5441 5446 5451 5457 5462 5466
5640 5635 5629 5622 5614 5604 5594 5581 5569 5556 5542 5527 5511 5493 5477 5461 5446 5433 5425 5412 5402 5397 5396 5397 5399 5400 5399 5398 5398 5397 5396 5393 5391 5390 5389 5389 5388 5388 5387 5387 5387 5389 5389 5392 5403 5415 5426 5437 5439 5444 5449 5455 5461 5466
5632 5627 5621 5614 5604 5594 5584 5571 5559 5546 5533 5517 5500 5484 5468 5454 5442 5432 5423 5413 5405 5402 5403 5403 5402 5402 5401 5400 5398 5397 5394 5393 5391 5389 5388 5388 5387 5387 5386 5385 5385 5388 5390 5393 5402 5414 5427 5431 5439 5445 5449 5454 5459 5464
5624 5619 5612 5604 5594 5584 5573 5560 5548 5536 5523 5507 5492 5476 5461 5449 5438 5432 5426 5420 5415 5413 5409 5407 5406 5405 5403 5401 5398 5396 5394 5391 5389 5387 5386 5385 5383 5383 5382 5382 5383 5386 5390 5395 5401 5414 5426 5433 5439 5444 5448 5454 5459 5464
5616 5610 5603 5594 5584 5574 5563 5551 5539 5526 5514 5499 5484 5468 5455 5445 5437 5432 5428 5423 5418 5416 5413 5411 5410 5407 5404 5401 5397 5394 5391 5389 5387 5386 5384 5383 5381 5381 5380 5380 5380 5381 5386 5392 5401 5412 5426 5433 5439 5445 5450 5453 5457 5463
5608 5601 5592 5583 5574 5565 5552 5542 5529 5518 5505 5490 5476 5462 5450 5440 5435 5431 5428 5424 5421 5418 5416 5414 5412 5409 5406 5402 5397 5392 5389 5387 5385 5383 5381 5380 5379 5377 5375 5375 5376 5379 5384 5390 5400 5411 5427 5433 5440 5445 5450 5453 5457 5461
5599 5592 5583 5574 5564 5555 5543 5532 5520 5508 5495 5481 5468 5456 5446 5437 5432 5429 5427 5424 5422 5420 5417 5415 5414 5410 5407 5403 5398 5393 5390 5387 5384 5382 5379 5376 5375 5373 5372 5372 5374 5378 5383 5390 5400 5413 5425 5433 5440 5446 5450 5454 5458 5462
5590 5582 5574 5565 5555 5545 5533 5522 5512 5499 5486 5472 5460 5450 5441 5435 5430 5427 5425 5423 5422 5422 5418 5416 5414 5411 5408 5404 5398 5395 5390 5387 5384 5380 5378 5376 5373 5371 5371 5371 5374 5380 5385 5393 5403 5416 5427 5434 5440 5446 5452 5456 5459 5463
5580 5572 5564 5555 5545 5535 5523 5514 5504 5491 5476 5463 5452 5444 5436 5431 5426 5424 5423 5422 5421 5420 5419 5417 5415 5412 5409 5405 5401 5398 5394 5390 5386 5384 5380 5379 5376 5376 5377 5378 5380 5385 5391 5401 5411 5421 5429 5436 5443 5449 5453 5457 5460 5464
5571 5563 5554 5544 5535 5524 5514 5505 5494 5480 5467 5457 5447 5439 5431 5426 5423 5421 5420 5420 5419 5419 5418 5417 5416 5413 5411 5407 5404 5402 5399 5394 5392 5391 5388 5385 5384 5384 5385 5388 5390 5395 5402 5409 5417 5426 5434 5441 5446 5450 5455 5458 5462 5465
5559 5552 5543 5535 5525 5514 5505 5495 5482 5468 5458 5449 5441 5433 5427 5423 5421 5419 5418 5418 5418 5418 5418 5417 5416 5414 5412 5409 5406 5404 5402 5400 5398 5397 5395 5392 5392 5392 5395 5397 5399 5403 5410 5415 5423 5431 5436 5442 5446 5451 5457 5460 5463 5466
5548 5542 5534 5525 5514 5505 5495 5483 5470 5459 5451 5440 5434 5429 5423 5421 5419 5417 5415 5415 5416 5416 5417 5417 5417 5415 5413 5410 5407 5406 5405 5405 5403 5403 5400 5398 5399 5400 5403 5406 5409 5414 5419 5421 5425 5431 5439 5444 5449 5454 5458 5461 5464 5467
5538 5532 5524 5514 5504 5497 5483 5472 5460 5452 5444 5436 5430 5424 5420 5417 5416 5414 5413 5412 5413 5414 5415 5416 5416 5415 5414 5412 5409 5409 5410 5409 5408 5407 5405 5402 5405 5407 5408 5410 5414 5418 5421 5426 5431 5437 5441 5445 5450 5455 5459 5464 5466 5469
5529 5521 5513 5503 5494 5484 5472 5462 5454 5446 5438 5429 5424 5419 5416 5414 5412 5411 5410 5410 5410 5411 5414 5416 5416 5416 5415 5414 5412 5413 5412 5413 5413 5412 5411 5409 5411 5413 5416 5418 5421 5424 5429 5432 5436 5441 5443 5447 5452 5457 5460 5463 5466 5469
5518 5510 5502 5493 5482 5472 5463 5454 5446 5439 5430 5425 5419 5414 5411 5410 5409 5409 5408 5408 5408 5409 5412 5414 5415 5416 5416 5415 5415 5414 5414 5415 5417 5417 5417 5415 5416 5418 5421 5425 5428 5431 5434 5438 5441 5444 5448 5451 5454 5458 5460 5462 5465 5468
5507 5501 5492 5482 5472 5464 5454 5446 5439 5430 5423 5418 5414 5409 5405 5406 5406 5406 5406 5405 5406 5408 5410 5412 5414 5415 5416 5416 5416 5415 5416 5417 5420 5421 5422 5423 5422 5424 5426 5428 5431 5434 5437 5440 5443 5446 5448 5451 5454 5457 5459 5461 5464 5467
5497 5490 5481 5471 5464 5455 5447 5440 5432 5424 5418 5414 5410 5405 5402 5403 5404 5403 5403 5404 5404 5406 5408 5411 5413 5414 5415 5416 5416 5417 5418 5419 5421 5423 5425 5427 5428 5430 5432 5434 5437 5439 5442 5444 5446 5449 5451 5453 5456 5458 5461 5464 5465 5467
5487 5478 5469 5462 5455 5447 5440 5433 5426 5418 5414 5409 5406 5402 5401 5401 5401 5401 5401 5402 5403 5404 5407 5409 5411 5413 5414 5415 5416 5418 5419 5421 5424 5426 5427 5430 5432 5434 5437 5439 5442 5444 5446 5448 5450 5452 5454 5456 5458 5460 5461 5462 5463 5465
5476 5468 5460 5454 5446 5439 5433 5426 5419 5413 5410 5406 5403 5400 5398 5398 5398 5398 5398 5400 5401 5403 5405 5407 5409 5411 5413 5415 5417 5419 5421 5423 5426 5428 5430 5432 5435 5438 5441 5443 5445 5447 5449 5450 5452 5454 5455 5457 5458 5459 5460 5461 5462 5463
5466 5459 5452 5446 5438 5432 5425 5418 5413 5409 5406 5404 5401 5398 5396 5395 5395 5395 5396 5398 5400 5401 5403 5405 5407 5410 5412 5414 5416 5419 5422 5425 5428 5430 5432 5434 5438 5440 5442 5444 5446 5448 5449 5451 5452 5453 5454 5455 5456 5457 5458 5459 5459 5459
5457 5450 5443 5436 5430 5424 5417 5412 5409 5405 5403 5401 5399 5396 5395 5394 5393 5393 5394 5396 5397 5399 5401 5403 5406 5408 5411 5414 5417 5420 5423 5426 5429 5431 5433 5436 5439 5441 5443 5444 5446 5448 5449 5450 5451 5451 5452 5453 5454 5455 5455 5455 5455 5454
5448 5441 5435 5429 5423 5416 5412 5407 5404 5401 5400 5398 5396 5394 5394 5393 5393 5392 5392 5393 5395 5397 5399 5402 5405 5407 5411 5414 5417 5420 5423 5426 5428 5431 5433 5436 5438 5441 5442 5444 5445 5446 5447 5448 5448 5449 5449 5450 5450 5450 5450 5449 5447 5446
5438 5433 5427 5421 5415 5410 5406 5403 5400 5399 5397 5396 5395 5394 5394 5393 5392 5392 5392 5394 5395 5397 5399 5402 5405 5408 5411 5414 5417 5420 5422 5425 5427 5430 5433 5435 5438 5439 5441 5443 5444 5445 5445 5445 5446 5446 5446 5445 5444 5443 5441 5439 5437 5435
5431 5426 5420 5414 5408 5404 5401 5399 5397 5395 5394 5394 5393 5393 5394 5395 5395 5395 5397 5398 5399 5401 5403 5405 5407 5410 5413 5415 5418 5420 5422 5425 5427 5429 5431 5434 5436 5438 5440 5441 5441 5442 5442 5442 5441 5440 5440 5439 5437 5435 5432 5430 5427 5425
5423 5417 5413 5406 5402 5399 5396 5394 5393 5392 5391 5391 5390 5391 5392 5394 5395 5396 5398 5399 5401 5402 5404 5406 5408 5411 5413 5415 5417 5419 5421 5424 5426 5428 5430 5432 5434 5435 5437 5437 5438 5438 5437 5436 5435 5434 5432 5430 5428 5426 5423 5421 5418 5416
5416 5410 5405 5400 5396 5393 5391 5389 5388 5388 5387 5387 5387 5387 5388 5389 5392 5395 5396 5398 5400 5402 5404 5406 5408 5410 5412 5414 5416 5418 5420 5422 5424 5426 5428 5430 5431 5432 5433 5434 5433 5433 5432 5430 5429 5427 5424 5422 5419 5417 5415 5413 5412 5410
5409 5402 5397 5393 5389 5386 5385 5383 5383 5383 5383 5383 5383 5383 5384 5385 5388 5390 5393 5395 5397 5399 5401 5404 5406 5408 5410 5412 5414 5417 5418 5420 5422 5423 5425 5427 5428 5428 5429 5428 5428 5426 5425 5423 5421 5418 5417 5415 5413 5412 5410 5408 5406 5404
5401 5395 5389 5385 5382 5380 5379 5379 5379 5380 5380 5379 5379 5379 5379 5380 5382 5384 5387 5390 5393 5396 5398 5400 5403 5405 5407 5410 5412 5414 5416 5417 5419 5420 5421 5422 5423 5423 5423 5422 5421 5420 5419 5417 5415 5413 5411 5410 5408 5407 5404 5402 5400 5398
5395 5388 5382 5378 5376 5375 5375 5376 5376 5376 5376 5376 5376 5375 5376 5377 5377 5379 5382 5386 5389 5392 5394 5397 5399 5401 5403 5406 5408 5410 5411 5413 5414 5415 5416 5416 5416 5416 5416 5416 5415 5413 5412 5411 5410 5409 5407 5405 5403 5401 5399 5397 5395 5392
5392 5385 5379 5376 5374 5373 5373 5373 5374 5373 5373 5372 5371 5372 5373 5374 5374 5375 5378 5381 5385 5388 5390 5393 5395 5397 5399 5401 5403 5405 5406 5407 5408 5409 5410 5410 5409 5409 5409 5408 5407 5406 5405 5405 5404 5403 5402 5401 5399 5397 5394 5392 5390 5388
5391 5386 5382 5378 5376 5374 5372 5372 5371 5371 5370 5369 5369 5371 5372 5372 5373 5374 5376 5378 5381 5384 5387 5389 5391 5393 5395 5396 5398 5399 5400 5401 5402 5402 5402 5402 5402 5401 5401 5401 5400 5400 5399 5399 5398 5397 5396 5395 5393 5392 5390 5388 5386 5383
5391 5386 5383 5379 5377 5374 5372 5370 5369 5368 5367 5367 5368 5369 5370 5371 5372 5373 5374 5376 5379 5381 5383 5385 5386 5388 5389 5391 5392 5393 5393 5394 5394 5394 5394 5394 5394 5394 5394 5394 5394 5394 5393 5393 5392 5391 5390 5388 5387 5385 5384 5383 5381 5380